Location: Newark
(46.9000°N, 28.3500°E)
Time: 16:50:09
(UTC+00:00)

Vanguard 1 Rocket - Pass Details

Date: 01 September 2019
Orbit: 650 x 4226 km, 34.3° (Epoch: 17 October)

Event Time Altitude Azimuth Distance (km) Brightness Sun altitude
Rises 00:45:21 0° 249° (WSW) 3,032 - -24.4°
Reaches altitude 10° 00:48:27 10° 227° (SW) 2,043 - -24.0°
Maximum altitude 00:51:10 16° 188° (S) 1,718 - -23.7°
Drops below altitude 10° 00:54:05 10° 149° (SSE) 2,221 - -23.4°
Exits shadow 00:54:09 10° 149° (SSE) 2,241 9.3 -23.4°
Sets 00:57:42 0° 128° (SE) 3,455 10.5 -22.9°
